[[{"header":{"parameterUnit":"m.s-1","parameterCategory":2,"la1":30.2991,"la2":30.254,"lo1":-89.0895,"lo2":-89.0444,"dy":0.0017,"dx":0.0017,"nx":28,"ny":28,"refTime":"2024-08-10T09:00:00:Z","depth":"0","parameterNumber":2,"parameterNumberName":"U-component_of_CURRENTS"},"data":[0,0,0,0,0,0,0,0,0,0,0,0,0,0,0,0,0,0,0,0,0,0,0,0,0,0,0,0,0,0,0,0,0,0,0,0,0,0,0,0,0,0,0,0,0,0,0,0,0,0,0,0,0,0,0,0,0,0,0.1891,0.1891,0,0.198,0.1981,0.1983,0.1943,0.194,0.1938,0.1935,0.2107,0.2113,0.212,0,0,0,0,0,0,0,0,0,0,0,0,0,0.1769,0.1771,0.1891,0.1892,0.1892,0.198,0.1981,0.1983,0.1943,0.194,0.1937,0.1934,0.2104,0.2112,0.2121,0,0,0,0,0,0,0,0,0,0,0,0,0,0.1839,0.1772,0.189,0.1881,0.1881,0.198,0.1981,0.1983,0.1944,0.194,0.1936,0.1933,0.2102,0.2112,0.2122,0.2259,0,0,0.2153,0.2158,0,0,0,0,0,0,0,0,0.1835,0.1843,0.1882,0.1882,0.1882,0.1944,0.2001,0.2079,0.1945,0.1923,0.1935,0.1931,0.2061,0.2074,0.2102,0.2267,0.2274,0.2154,0.216,0.2165,0.2168,0,0,0,0,0,0,0,0.183,0.184,0.1929,0.1883,0.1883,0.1901,0.1906,0.2016,0.2015,0.1924,0.1921,0.1928,0.2061,0.2092,0.2106,0.2277,0.2154,0.2163,0.2169,0.2173,0.2565,0.2569,0,0,0,0,0,0,0.1814,0.1836,0.1926,0.1931,0.1846,0.1905,0.1912,0.193,0.2012,0.2019,0.1931,0.1926,0.2076,0.2094,0.2112,0.2268,0.2165,0.2174,0.218,0.2561,0.2566,0.2571,0,0,0,0,0,0,0.1811,0.1822,0.1922,0.1882,0.1895,0.191,0.1932,0.1934,0.1963,0.2016,0.2024,0.1957,0.2074,0.2097,0.2231,0.2274,0.2179,0.2188,0.2556,0.2563,0.2569,0.2588,0,0,0,0,0,0,0.1808,0.1821,0.1847,0.1882,0.1897,0.1997,0.1936,0.1938,0.1971,0.1966,0.2043,0.2053,0.2073,0.2216,0.2241,0.2287,0.2196,0.2551,0.2559,0.2567,0.2582,0.2595,0.2605,0,0,0,0,0,0.1803,0.1867,0.1848,0.186,0.1927,0.2,0.2012,0.201,0.1976,0.2018,0.2068,0.2051,0.2283,0.2229,0.2258,0.2306,0.2547,0.2557,0.2566,0.2577,0.2592,0.2605,0,0,0,0,0,0,0.1839,0.187,0.185,0.192,0.1956,0.1992,0.2036,0.2029,0.2102,0.2096,0.2127,0.2147,0.2279,0.2313,0.2252,0.2448,0.2406,0.2422,0.2405,0.242,0.2431,0.2332,0.2205,0,0,0,0,0,0.1856,0.1905,0.1928,0.1987,0.2003,0.202,0.2052,0.205,0.2106,0.213,0.2179,0.225,0.2349,0.2394,0.2489,0.2613,0.2597,0.2661,0.2672,0.2681,0.2625,0.2666,0.2673,0.2602,0.2602,0.2602,0,0,0.1893,0.191,0.1942,0.1997,0.2019,0.2062,0.2032,0.2091,0.2122,0.2149,0.2233,0.2311,0.2399,0.2523,0.2582,0.2547,0.2708,0.2693,0.2699,0.2637,0.2676,0.2682,0.2687,0.2609,0.2608,0.2607,0,0,0.1968,0.1996,0.2043,0.2074,0.2107,0.2123,0.2139,0.2183,0.2198,0.2305,0.2326,0.2417,0.2572,0.2616,0.2665,0.2808,0.278,0.2858,0.2818,0.2861,0.2865,0.2867,0.289,0.2894,0.2845,0.2845,0.2845,0,0.2009,0.204,0.2076,0.2113,0.2122,0.2145,0.2173,0.2228,0.2309,0.2319,0.2335,0.2519,0.2602,0.2707,0.2744,0.2825,0.2831,0.275,0.2867,0.2869,0.2871,0.2893,0.2897,0.2847,0.2847,0.2847,0.2847,0,0.2084,0.2112,0.2149,0.218,0.2218,0.2258,0.2297,0.2344,0.2361,0.2387,0.2494,0.2608,0.268,0.2756,0.2792,0.2863,0.2861,0.2885,0.2806,0.2877,0.2899,0.2903,0.285,0.285,0.2849,0.2849,0,0,0.2142,0.2188,0.2189,0.2174,0.2235,0.2259,0.2329,0.2364,0.2369,0.2474,0.2485,0.2663,0.2671,0.2725,0.2796,0.283,0.2887,0.2846,0.2847,0.282,0.296,0.2931,0.2932,0.2924,0.2925,0.2925,0.2979,0,0.2163,0.2201,0.2227,0.2253,0.2258,0.2286,0.2334,0.2378,0.2422,0.2463,0.2551,0.2629,0.2681,0.2717,0.2762,0.2866,0.2892,0.2867,0.2933,0.2934,0.286,0.2934,0.2906,0.2948,0.2982,0.2983,0.2983,0,0.2185,0.2195,0.221,0.2209,0.2213,0.2243,0.2247,0.2301,0.2374,0.2408,0.2469,0.2542,0.2631,0.2665,0.2799,0.2779,0.2845,0.2911,0.2916,0.286,0.291,0.2883,0.2953,0.286,0.2989,0.2988,0.2988,0,0.2124,0.2163,0.2149,0.2159,0.2196,0.2189,0.2209,0.2266,0.229,0.2363,0.2386,0.2492,0.2555,0.2649,0.2787,0.2793,0.2914,0.2954,0.2982,0.2981,0.2948,0.2943,0.2881,0.3009,0.3009,0.3009,0.3009,0,0.21,0.2083,0.2111,0.2102,0.2077,0.2123,0.2113,0.2149,0.2209,0.2234,0.2339,0.2383,0.255,0.265,0.2759,0.2874,0.2898,0.2954,0.2989,0.2964,0.296,0.2868,0.2814,0.3011,0.3011,0.301,0.301,0,0.2025,0.2053,0.2028,0.2044,0.2045,0.2022,0.205,0.2055,0.2117,0.2154,0.2178,0.2312,0.2444,0.2599,0.2769,0.284,0.2882,0.2988,0.2933,0.2959,0.288,0.283,0.2662,0.2601,0.3019,0.3018,0.3018,0,0.1985,0.1967,0.1966,0.1953,0.1953,0.1941,0.1941,0.1998,0.2016,0.2111,0.2127,0.2258,0.2356,0.2583,0.2752,0.2922,0.2846,0.2958,0.2959,0.2841,0.2813,0.2683,0.2636,0.2952,0.2952,0.2951,0.295,0,0.1896,0.1895,0.1882,0.186,0.1846,0.1841,0.1848,0.1852,0.1928,0.1969,0.2038,0.2121,0.235,0.2507,0.272,0.2845,0.2804,0.2944,0.2852,0.2752,0.2576,0.2548,0.2936,0.2944,0.2944,0.2945,0.2945,0.2945,0.1816,0.1788,0.1779,0.1753,0.1745,0.1738,0.1716,0.1754,0.1776,0.1835,0.1938,0.2043,0.2279,0.2588,0.2696,0.2814,0.2745,0.2788,0.274,0.2621,0.2524,0.2867,0.2893,0.2893,0.2894,0.2894,0.2894,0,0.1707,0.1699,0.1676,0.1645,0.1612,0.1645,0.1649,0.1636,0.1645,0.1745,0.1811,0.2022,0.2202,0.2423,0.2631,0.2611,0.2571,0.2548,0.2374,0.2347,0.2702,0.2662,0.2601,0.2601,0.2601,0.2601,0.2601,0.2602,0.165,0.1601,0.1599,0.1522,0.1506,0.1457,0.1452,0.1463,0.1519,0.1601,0.1704,0.1827,0.207,0.2264,0.2356,0.2372,0.2216,0.213,0.2069,0.2345,0.2364,0.2381,0.233,0.2201,0.22,0.1684,0.168,0.1677]},{"header":{"parameterUnit":"m.s-1","parameterCategory":2,"la1":30.2991,"la2":30.254,"lo1":-89.0895,"lo2":-89.0444,"dy":0.0017,"dx":0.0017,"nx":28,"ny":28,"refTime":"2024-08-10T09:00:00:Z","depth":"0","parameterNumber":3,"parameterNumberName":"V-component_of_CURRENTS"},"data":[0,0,0,0,0,0,0,0,0,0,0,0,0,0,0,0,0,0,0,0,0,0,0,0,0,0,0,0,0,0,0,0,0,0,0,0,0,0,0,0,0,0,0,0,0,0,0,0,0,0,0,0,0,0,0,0,0,0,0.1007,0.1007,0,0.1085,0.1087,0.1088,0.106,0.1058,0.1056,0.1054,0.1044,0.1045,0.1047,0,0,0,0,0,0,0,0,0,0,0,0,0,0.0836,0.0839,0.1007,0.1007,0.1008,0.1085,0.1087,0.1088,0.1061,0.1058,0.1056,0.1054,0.1043,0.1045,0.1047,0,0,0,0,0,0,0,0,0,0,0,0,0,0.0915,0.0841,0.1007,0.1002,0.1002,0.1085,0.1087,0.1088,0.1061,0.1058,0.1055,0.1052,0.1043,0.1045,0.1047,0.1123,0,0,0.1055,0.1056,0,0,0,0,0,0,0,0,0.091,0.0922,0.1002,0.1002,0.1002,0.1057,0.1022,0.1094,0.1062,0.1042,0.1054,0.1051,0.104,0.1043,0.107,0.1122,0.1122,0.1055,0.1056,0.1057,0.1058,0,0,0,0,0,0,0,0.0905,0.0918,0.1041,0.1003,0.1003,0.0996,0.1004,0.1037,0.1058,0.1043,0.1041,0.1046,0.104,0.1068,0.1069,0.1122,0.1055,0.1057,0.1058,0.1059,0.1167,0.1168,0,0,0,0,0,0,0.0893,0.0914,0.1038,0.1043,0.0944,0.1001,0.1011,0.1045,0.1059,0.1059,0.1048,0.1044,0.1065,0.1066,0.1068,0.1145,0.1057,0.106,0.1061,0.1165,0.1167,0.1169,0,0,0,0,0,0,0.089,0.0905,0.1035,0.0975,0.099,0.1007,0.1046,0.1048,0.1071,0.1063,0.1061,0.1067,0.1063,0.1065,0.1118,0.1144,0.1061,0.1063,0.1164,0.1166,0.1168,0.1305,0,0,0,0,0,0,0.0885,0.0904,0.0939,0.0976,0.0993,0.1094,0.1049,0.1052,0.1077,0.1073,0.108,0.1075,0.1061,0.1115,0.1121,0.1145,0.1065,0.1162,0.1165,0.1167,0.1299,0.1312,0.1323,0,0,0,0,0,0.088,0.0944,0.0942,0.0956,0.1038,0.1096,0.1106,0.1107,0.1081,0.1113,0.1122,0.1075,0.1133,0.1121,0.1126,0.1152,0.1161,0.1164,0.1167,0.1293,0.1309,0.1322,0,0,0,0,0,0,0.0908,0.0948,0.0946,0.1025,0.1057,0.109,0.1123,0.112,0.1157,0.1147,0.1128,0.1129,0.1177,0.1151,0.1137,0.1184,0.1126,0.113,0.122,0.1234,0.1246,0.12,0.1067,0,0,0,0,0,0.0927,0.0974,0.1008,0.1072,0.1086,0.1106,0.1131,0.1134,0.1162,0.1174,0.1177,0.1176,0.12,0.1206,0.1222,0.1273,0.1203,0.1278,0.129,0.1301,0.1265,0.1194,0.1196,0.1179,0.1179,0.1179,0,0,0.0958,0.0984,0.1014,0.1079,0.11,0.1144,0.1115,0.1162,0.1199,0.1169,0.1226,0.1232,0.1225,0.1279,0.1293,0.1258,0.1281,0.1305,0.1315,0.1271,0.1197,0.1199,0.12,0.1181,0.1181,0.118,0,0,0.102,0.1062,0.1105,0.1134,0.1167,0.1188,0.12,0.1238,0.1253,0.1321,0.1299,0.1325,0.1362,0.1363,0.1367,0.1454,0.1354,0.1444,0.1466,0.1401,0.1401,0.14,0.1365,0.1359,0.1441,0.1442,0.1442,0,0.105,0.1114,0.113,0.1169,0.1192,0.1205,0.1247,0.129,0.1341,0.135,0.1345,0.1382,0.1399,0.1433,0.1464,0.1481,0.1419,0.1424,0.1415,0.1412,0.1408,0.1372,0.1364,0.1449,0.1448,0.1447,0.1446,0,0.1121,0.1178,0.1209,0.1255,0.1286,0.1338,0.1369,0.1409,0.1423,0.1439,0.1476,0.1504,0.1498,0.1527,0.1532,0.152,0.1481,0.1449,0.1378,0.1418,0.1378,0.1367,0.1459,0.1456,0.1454,0.1452,0,0,0.1159,0.1244,0.1249,0.1272,0.1332,0.1358,0.1428,0.1476,0.1489,0.1537,0.154,0.1611,0.1578,0.1576,0.1577,0.1536,0.1514,0.1479,0.1472,0.1443,0.1368,0.1327,0.131,0.1464,0.1461,0.1459,0.137,0,0.1204,0.1282,0.1313,0.1385,0.1422,0.1449,0.15,0.1536,0.1563,0.1578,0.1587,0.1601,0.1612,0.1605,0.1572,0.1524,0.148,0.1541,0.1331,0.1325,0.1281,0.1294,0.1289,0.1204,0.1358,0.1356,0.1355,0,0.1238,0.1287,0.136,0.1421,0.1435,0.1476,0.151,0.156,0.1588,0.1599,0.1596,0.1588,0.1582,0.156,0.1472,0.1499,0.143,0.1386,0.138,0.1266,0.126,0.1176,0.1177,0.1077,0.1337,0.1338,0.134,0,0.1207,0.1308,0.136,0.1386,0.1464,0.1485,0.1519,0.1553,0.158,0.1591,0.1588,0.1567,0.1549,0.146,0.1409,0.1415,0.1276,0.1277,0.1173,0.1172,0.1083,0.1076,0.0949,0.1162,0.1163,0.1163,0.1163,0,0.123,0.1268,0.1349,0.1375,0.1413,0.1459,0.1488,0.1521,0.1551,0.1563,0.1577,0.1569,0.1508,0.1446,0.1378,0.1249,0.125,0.1156,0.1128,0.1139,0.1138,0.0978,0.0907,0.116,0.116,0.1161,0.1161,0,0.1188,0.1255,0.1305,0.1382,0.1401,0.1414,0.1474,0.1495,0.1529,0.1539,0.1539,0.155,0.1478,0.1417,0.1285,0.1211,0.1025,0.1043,0.1081,0.1058,0.0866,0.0803,0.0596,0.0559,0.0906,0.0904,0.0902,0,0.118,0.1205,0.1277,0.13,0.1338,0.1376,0.1403,0.1466,0.1491,0.1527,0.1524,0.1485,0.1463,0.1289,0.1159,0.1019,0.0942,0.0894,0.0901,0.0828,0.0739,0.0728,0.0713,0.0869,0.0867,0.0866,0.0864,0,0.1151,0.1168,0.1207,0.1252,0.1287,0.133,0.1378,0.1397,0.1461,0.148,0.1487,0.1477,0.1352,0.1218,0.1043,0.0952,0.0812,0.0858,0.0755,0.0657,0.0657,0.0619,0.0984,0.0852,0.0853,0.0854,0.0855,0.0855,0.1106,0.1116,0.1162,0.1201,0.1243,0.1281,0.1301,0.1354,0.1388,0.1428,0.1441,0.1437,0.129,0.1067,0.0923,0.067,0.0685,0.0588,0.0512,0.0505,0.047,0.0816,0.0667,0.0667,0.0667,0.0667,0.0667,0,0.1055,0.1082,0.1115,0.1163,0.1191,0.1232,0.1284,0.1304,0.1328,0.1386,0.1404,0.1344,0.1126,0.0932,0.0597,0.0376,0.0358,0.0263,0.0249,0.0246,0.0525,0.0526,0.0371,0.0371,0.0371,0.0371,0.0371,0.0371,0.103,0.1047,0.1073,0.1107,0.1139,0.117,0.1193,0.1225,0.1272,0.1312,0.1333,0.1374,0.1243,0.0616,0.0199,0.0103,-0.0028,-0.0086,-0.014,0.0052,0.0079,0.0104,0.009,-0.0153,-0.0154,-0.0341,-0.0344,-0.0346]}],[{"header":{"parameterUnit":"m.s-1","parameterCategory":2,"la1":30.2991,"la2":30.254,"lo1":-89.0895,"lo2":-89.0444,"dy":0.0017,"dx":0.0017,"nx":28,"ny":28,"refTime":"2024-08-10T09:00:00:Z","depth":"2","parameterNumber":2,"parameterNumberName":"U-component_of_CURRENTS"},"data":[0,0,0,0,0,0,0,0,0,0,0,0,0,0,0,0,0,0,0,0,0,0,0,0,0,0,0,0,0,0,0,0,0,0,0,0,0,0,0,0,0,0,0,0,0,0,0,0,0,0,0,0,0,0,0,0,0,0,0.1056,0.1058,0,0.1092,0.1091,0.109,0.1052,0.1052,0.1052,0.1052,0.1121,0.1123,0.1125,0,0,0,0,0,0,0,0,0,0,0,0,0,0.0957,0.0957,0.1056,0.1058,0.106,0.1092,0.1091,0.109,0.1052,0.1052,0.1052,0.1052,0.1121,0.1123,0.1125,0,0,0,0,0,0,0,0,0,0,0,0,0,0.0981,0.0957,0.1055,0.1057,0.1059,0.1092,0.1091,0.1089,0.1052,0.1052,0.1052,0.1052,0.112,0.1123,0.1125,0.1141,0,0,0.1134,0.1135,0,0,0,0,0,0,0,0,0.098,0.0982,0.1055,0.1057,0.1059,0.1082,0.1082,0.1114,0.1052,0.1037,0.1052,0.1052,0.1122,0.1125,0.1107,0.1144,0.1147,0.1134,0.1135,0.1137,0.1137,0,0,0,0,0,0,0,0.0978,0.0981,0.1053,0.1057,0.106,0.1058,0.1059,0.1086,0.1066,0.1038,0.104,0.107,0.1121,0.1104,0.1109,0.1148,0.1134,0.1136,0.1138,0.1139,0.1063,0.1059,0,0,0,0,0,0,0.1007,0.098,0.1052,0.1056,0.1037,0.1061,0.1062,0.1061,0.1066,0.1071,0.107,0.1069,0.11,0.1106,0.1111,0.1097,0.1137,0.1139,0.1141,0.1067,0.1062,0.1058,0,0,0,0,0,0,0.1004,0.1011,0.1051,0.1034,0.1041,0.1064,0.1063,0.1062,0.1085,0.1092,0.1095,0.1101,0.11,0.1108,0.1089,0.1101,0.114,0.1143,0.1071,0.1065,0.106,0.1091,0,0,0,0,0,0,0.1,0.1009,0.1017,0.1035,0.1043,0.107,0.1064,0.1063,0.111,0.1108,0.1119,0.1123,0.1101,0.1085,0.1092,0.1106,0.1145,0.1075,0.1068,0.1062,0.1094,0.1087,0.1081,0,0,0,0,0,0.0996,0.0993,0.1016,0.1027,0.1052,0.1072,0.1073,0.108,0.1112,0.1104,0.1078,0.1124,0.1046,0.1084,0.1094,0.1109,0.1079,0.107,0.1062,0.1097,0.1088,0.1081,0,0,0,0,0,0,0.0957,0.0992,0.1016,0.1027,0.1059,0.1072,0.1071,0.1112,0.109,0.1098,0.1097,0.1095,0.1075,0.1072,0.1115,0.1049,0.1065,0.1058,0.1088,0.108,0.1073,0.1089,0.1147,0,0,0,0,0,0.096,0.0959,0.1008,0.1019,0.1031,0.1069,0.1088,0.1114,0.1111,0.1105,0.1102,0.1078,0.1042,0.1048,0.101,0.1012,0.102,0.101,0.1004,0.0999,0.1006,0.0998,0.0994,0.1031,0.1031,0.1032,0,0,0.0955,0.0975,0.0978,0.1012,0.1025,0.1022,0.1073,0.1112,0.111,0.112,0.1084,0.107,0.1029,0.0984,0.0979,0.0997,0.0987,0.0988,0.0986,0.0996,0.099,0.0987,0.0985,0.1026,0.1027,0.1028,0,0,0.0922,0.0953,0.0935,0.0955,0.1009,0.1023,0.1053,0.1086,0.109,0.108,0.1057,0.1042,0.1008,0.0966,0.0946,0.0888,0.0945,0.0882,0.089,0.0882,0.0881,0.0881,0.0892,0.0892,0.089,0.089,0.089,0,0.0915,0.0907,0.0937,0.0925,0.095,0.1025,0.1026,0.1028,0.105,0.1057,0.1061,0.0995,0.0988,0.0938,0.0898,0.0885,0.0894,0.0944,0.0883,0.0882,0.0881,0.0892,0.0893,0.089,0.089,0.089,0.089,0,0.0862,0.087,0.086,0.0857,0.0876,0.0901,0.0932,0.0947,0.0986,0.0999,0.0982,0.0947,0.0921,0.0906,0.0893,0.0875,0.0888,0.0879,0.093,0.0881,0.0893,0.0893,0.0891,0.0891,0.0891,0.0891,0,0,0.0812,0.0822,0.0822,0.0831,0.0864,0.088,0.087,0.0892,0.091,0.0913,0.0917,0.086,0.0901,0.0875,0.0874,0.087,0.088,0.0884,0.0884,0.0941,0.0885,0.092,0.0923,0.0878,0.0878,0.0878,0.0902,0,0.0769,0.0749,0.0763,0.0756,0.0758,0.0814,0.0796,0.0832,0.0857,0.0861,0.0873,0.0859,0.0871,0.0887,0.0883,0.0877,0.0879,0.0876,0.0882,0.0882,0.0958,0.0923,0.0782,0.0793,0.0901,0.0901,0.0901,0,0.0714,0.0717,0.0709,0.074,0.0745,0.0749,0.0788,0.0787,0.0808,0.0834,0.0849,0.0863,0.0867,0.0879,0.0878,0.0883,0.089,0.0884,0.0885,0.091,0.0916,0.085,0.0789,0.0901,0.0901,0.0901,0.0901,0,0.0684,0.0683,0.069,0.0698,0.0724,0.0744,0.0763,0.079,0.0797,0.0833,0.0848,0.086,0.0875,0.0879,0.0902,0.0895,0.0901,0.0885,0.0916,0.0919,0.0795,0.0788,0.0876,0.0876,0.0876,0.0876,0.0876,0,0.0643,0.0649,0.0685,0.0692,0.0709,0.0738,0.0758,0.0782,0.0804,0.0807,0.0848,0.0853,0.0878,0.0893,0.0904,0.0928,0.0911,0.0921,0.0925,0.0798,0.0792,0.0877,0.0877,0.0877,0.0877,0.0876,0.0876,0,0.0611,0.0631,0.0643,0.0682,0.0698,0.0717,0.0753,0.0758,0.0794,0.08,0.0814,0.0849,0.0892,0.0919,0.0932,0.0935,0.0947,0.0956,0.0826,0.0815,0.0969,0.0969,0.0986,0.0988,0.0989,0.099,0.0991,0,0.0592,0.0596,0.064,0.0653,0.0678,0.0708,0.0722,0.0756,0.0755,0.079,0.0781,0.0841,0.0878,0.0933,0.0965,0.1008,0.0993,0.0873,0.0828,0.0976,0.0979,0.0977,0.0975,0.0665,0.0663,0.0662,0.0661,0,0.0562,0.0587,0.0602,0.0633,0.0657,0.0667,0.069,0.0681,0.0712,0.0727,0.0754,0.0795,0.0881,0.0879,0.0951,0.0934,0.0861,0.0846,0.1005,0.0681,0.0681,0.0682,0.0688,0.0646,0.0648,0.0649,0.065,0.065,0.055,0.0557,0.0587,0.0617,0.0635,0.0636,0.064,0.0642,0.0645,0.0661,0.0705,0.0742,0.0743,0.083,0.0837,0.0835,0.0885,0.0765,0.0766,0.0769,0.0749,0.0753,0.0729,0.0731,0.0732,0.0734,0.0735,0,0.0544,0.0561,0.0569,0.0598,0.0603,0.064,0.0625,0.0608,0.0609,0.0621,0.0662,0.0598,0.0617,0.0657,0.0662,0.0684,0.064,0.0615,0.0511,0.0523,0.0534,0.05,0.0415,0.0415,0.0415,0.0415,0,0,0.0542,0.0551,0.0557,0.057,0.0604,0.062,0.0623,0.0582,0.0566,0.0519,0.0526,0.0589,0.0608,0.0517,0.049,0.0465,0.0495,0.0437,0.0673,0.0558,0.057,0.0581,0.0538,0,0,0,0,0]},{"header":{"parameterUnit":"m.s-1","parameterCategory":2,"la1":30.2991,"la2":30.254,"lo1":-89.0895,"lo2":-89.0444,"dy":0.0017,"dx":0.0017,"nx":28,"ny":28,"refTime":"2024-08-10T09:00:00:Z","depth":"2","parameterNumber":3,"parameterNumberName":"V-component_of_CURRENTS"},"data":[0,0,0,0,0,0,0,0,0,0,0,0,0,0,0,0,0,0,0,0,0,0,0,0,0,0,0,0,0,0,0,0,0,0,0,0,0,0,0,0,0,0,0,0,0,0,0,0,0,0,0,0,0,0,0,0,0,0,-0.0244,-0.0244,0,-0.027,-0.0272,-0.0273,-0.0293,-0.0292,-0.0291,-0.029,-0.0267,-0.0267,-0.0267,0,0,0,0,0,0,0,0,0,0,0,0,0,-0.0244,-0.0245,-0.0244,-0.0244,-0.0243,-0.027,-0.0272,-0.0273,-0.0293,-0.0292,-0.0291,-0.029,-0.0267,-0.0267,-0.0267,0,0,0,0,0,0,0,0,0,0,0,0,0,-0.0267,-0.0245,-0.0245,-0.0246,-0.0246,-0.027,-0.0272,-0.0274,-0.0293,-0.0292,-0.029,-0.0289,-0.0266,-0.0267,-0.0267,-0.03,0,0,-0.0269,-0.0269,0,0,0,0,0,0,0,0,-0.0265,-0.0268,-0.0247,-0.0246,-0.0246,-0.0266,-0.0262,-0.0276,-0.0294,-0.0289,-0.029,-0.0288,-0.0254,-0.0256,-0.0283,-0.0299,-0.0298,-0.0269,-0.0269,-0.0269,-0.0269,0,0,0,0,0,0,0,-0.0264,-0.0267,-0.0268,-0.0246,-0.0245,-0.0256,-0.0259,-0.0266,-0.0289,-0.0289,-0.0288,-0.027,-0.0255,-0.0283,-0.0282,-0.0298,-0.0269,-0.0269,-0.0269,-0.027,-0.0464,-0.0469,0,0,0,0,0,0,-0.0235,-0.0266,-0.0267,-0.0267,-0.0237,-0.0256,-0.026,-0.0271,-0.029,-0.0288,-0.0272,-0.0271,-0.0283,-0.0282,-0.0281,-0.0353,-0.0269,-0.027,-0.027,-0.0459,-0.0465,-0.0471,0,0,0,0,0,0,-0.0235,-0.0236,-0.0266,-0.0255,-0.0258,-0.0256,-0.027,-0.0272,-0.0254,-0.0274,-0.0274,-0.0243,-0.0282,-0.0281,-0.0332,-0.035,-0.027,-0.027,-0.0454,-0.0461,-0.0468,-0.0474,0,0,0,0,0,0,-0.0236,-0.0237,-0.0239,-0.0254,-0.0257,-0.0276,-0.027,-0.0273,-0.0242,-0.024,-0.025,-0.025,-0.028,-0.0332,-0.0333,-0.0349,-0.0271,-0.0447,-0.0457,-0.0466,-0.0468,-0.0481,-0.0492,0,0,0,0,0,-0.0236,-0.0253,-0.024,-0.0238,-0.0259,-0.0275,-0.0281,-0.0282,-0.0241,-0.0255,-0.0296,-0.0247,-0.0391,-0.0336,-0.0336,-0.0352,-0.0443,-0.0454,-0.0465,-0.0463,-0.0478,-0.0492,0,0,0,0,0,0,-0.0256,-0.0256,-0.0242,-0.0257,-0.0255,-0.0273,-0.0287,-0.0252,-0.0291,-0.0282,-0.0294,-0.0301,-0.0353,-0.0373,-0.0311,-0.0452,-0.0414,-0.0425,-0.0413,-0.0428,-0.0439,-0.0378,-0.0271,0,0,0,0,0,-0.0256,-0.0272,-0.0261,-0.0273,-0.0275,-0.0263,-0.0261,-0.0245,-0.0271,-0.0282,-0.0302,-0.035,-0.0409,-0.0428,-0.0483,-0.0538,-0.0512,-0.0564,-0.0576,-0.0585,-0.0547,-0.0569,-0.0576,-0.0507,-0.0507,-0.0506,0,0,-0.0262,-0.0263,-0.0269,-0.0276,-0.0285,-0.0309,-0.0264,-0.0254,-0.0271,-0.0273,-0.0333,-0.0369,-0.0435,-0.0527,-0.0552,-0.0534,-0.0602,-0.0599,-0.0606,-0.0561,-0.058,-0.0586,-0.059,-0.0514,-0.0513,-0.0512,0,0,-0.0295,-0.0291,-0.0316,-0.032,-0.0304,-0.0313,-0.029,-0.0295,-0.0303,-0.0355,-0.038,-0.0427,-0.0516,-0.0577,-0.0615,-0.0721,-0.0657,-0.075,-0.0753,-0.0776,-0.0779,-0.0781,-0.0765,-0.0765,-0.0763,-0.0763,-0.0764,0,-0.0299,-0.0325,-0.0324,-0.0349,-0.0344,-0.0308,-0.0321,-0.0347,-0.0367,-0.0373,-0.0382,-0.0505,-0.0543,-0.063,-0.0695,-0.0733,-0.0725,-0.0675,-0.078,-0.0782,-0.0784,-0.0767,-0.0767,-0.0765,-0.0765,-0.0765,-0.0765,0,-0.0356,-0.0363,-0.0382,-0.0412,-0.0418,-0.0418,-0.0428,-0.0439,-0.043,-0.0443,-0.0498,-0.0578,-0.0636,-0.0684,-0.072,-0.0771,-0.0754,-0.0775,-0.0712,-0.0789,-0.077,-0.0769,-0.0767,-0.0767,-0.0766,-0.0766,0,0,-0.0399,-0.0414,-0.042,-0.0411,-0.043,-0.0431,-0.0479,-0.0495,-0.0485,-0.0541,-0.0548,-0.0675,-0.0657,-0.0702,-0.0742,-0.0773,-0.0793,-0.0778,-0.0779,-0.0705,-0.0811,-0.0761,-0.0755,-0.0826,-0.0826,-0.0827,-0.0792,0,-0.0436,-0.0464,-0.0476,-0.0496,-0.05,-0.0489,-0.0529,-0.0534,-0.055,-0.0568,-0.061,-0.0648,-0.0686,-0.0694,-0.0736,-0.077,-0.0793,-0.0798,-0.0796,-0.0795,-0.0694,-0.0754,-0.0715,-0.0677,-0.0791,-0.0791,-0.0791,0,-0.0488,-0.049,-0.0504,-0.0486,-0.0489,-0.0503,-0.0501,-0.0525,-0.0551,-0.0557,-0.0584,-0.0605,-0.0652,-0.0674,-0.0733,-0.0732,-0.0763,-0.0791,-0.0791,-0.0725,-0.0744,-0.0627,-0.0671,-0.079,-0.079,-0.079,-0.079,0,-0.0487,-0.0505,-0.0499,-0.0499,-0.0498,-0.0491,-0.0492,-0.051,-0.051,-0.0525,-0.0514,-0.0572,-0.0576,-0.0635,-0.0687,-0.071,-0.073,-0.0776,-0.0755,-0.0751,-0.0703,-0.0694,-0.0807,-0.0807,-0.0807,-0.0807,-0.0807,0,-0.0506,-0.0497,-0.0484,-0.0476,-0.0453,-0.0461,-0.0441,-0.0447,-0.0451,-0.0438,-0.0485,-0.0474,-0.0565,-0.0592,-0.0657,-0.0681,-0.0706,-0.0732,-0.074,-0.0711,-0.0704,-0.0792,-0.079,-0.0806,-0.0806,-0.0807,-0.0807,0,-0.0488,-0.0491,-0.0468,-0.0453,-0.0443,-0.0418,-0.0393,-0.0382,-0.0384,-0.0363,-0.036,-0.0393,-0.041,-0.0489,-0.0563,-0.0619,-0.0667,-0.0673,-0.0608,-0.0608,-0.0678,-0.0679,-0.0644,-0.0642,-0.064,-0.0639,-0.0638,0,-0.0473,-0.046,-0.0434,-0.0411,-0.0394,-0.0362,-0.0342,-0.0343,-0.033,-0.0307,-0.0293,-0.0295,-0.0275,-0.0343,-0.0435,-0.0504,-0.0586,-0.0537,-0.0585,-0.065,-0.0662,-0.0666,-0.0669,-0.0534,-0.0532,-0.053,-0.0529,0,-0.0428,-0.0417,-0.0398,-0.036,-0.0329,-0.0299,-0.0268,-0.0247,-0.0241,-0.0201,-0.0145,-0.0114,-0.0155,-0.0202,-0.03,-0.0359,-0.0524,-0.0504,-0.0597,-0.0578,-0.0543,-0.0556,-0.0563,-0.0515,-0.0516,-0.0517,-0.0518,-0.0518,-0.0381,-0.0357,-0.0335,-0.0297,-0.0267,-0.0229,-0.0191,-0.015,-0.0093,-0.0002,-0.0003,0.0059,-0.006,-0.0138,-0.0229,-0.0343,-0.0375,-0.0453,-0.046,-0.0468,-0.0458,-0.0422,-0.0367,-0.0367,-0.0368,-0.0368,-0.0369,0,-0.0321,-0.0305,-0.0271,-0.023,-0.0192,-0.0189,-0.0139,-0.0081,0.0021,0.0102,0.0201,0.0122,0.0082,-0.0064,-0.0199,-0.0288,-0.0314,-0.0334,-0.0372,-0.0384,-0.0395,-0.0385,-0.0273,-0.0273,-0.0273,-0.0273,0,0,-0.0286,-0.0249,-0.0241,-0.0169,-0.0139,-0.0077,-0.0041,0.0061,0.0125,0.0242,0.0274,0.0325,0.0107,0.0009,-0.0115,-0.0194,-0.0263,-0.0197,-0.0261,-0.0301,-0.0311,-0.0447,-0.0442,0,0,0,0,0]}],[{"header":{"parameterUnit":"m.s-1","parameterCategory":2,"la1":30.2991,"la2":30.254,"lo1":-89.0895,"lo2":-89.0444,"dy":0.0017,"dx":0.0017,"nx":28,"ny":28,"refTime":"2024-08-10T09:00:00:Z","depth":"4","parameterNumber":2,"parameterNumberName":"U-component_of_CURRENTS"},"data":[0,0,0,0,0,0,0,0,0,0,0,0,0,0,0,0,0,0,0,0,0,0,0,0,0,0,0,0,0,0,0,0,0,0,0,0,0,0,0,0,0,0,0,0,0,0,0,0,0,0,0,0,0,0,0,0,0,0,-0.0102,-0.0101,0,-0.0042,-0.0042,-0.0041,0.0053,0.0055,0.0057,0.0059,0.0092,0.0091,0.009,0,0,0,0,0,0,0,0,0,0,0,0,0,-0.0195,-0.0193,-0.0102,-0.0101,-0.01,-0.0042,-0.0042,-0.0041,0.0053,0.0055,0.0057,0.006,0.0093,0.0091,0.009,0,0,0,0,0,0,0,0,0,0,0,0,0,-0.015,-0.0193,-0.0102,-0.0043,-0.0037,-0.0042,-0.0042,-0.0041,0.0052,0.0055,0.0058,0.0061,0.0093,0.0092,0.009,0.002,0,0,0.0085,0.0085,0,0,0,0,0,0,0,0,-0.0152,-0.0147,-0.0053,-0.0047,-0.0041,0.0004,-0.0062,-0.0021,0.0051,0.0014,0.0059,0.0062,0.006,0.0062,0.0062,0.0022,0.0023,0.0085,0.0084,0.0084,0.0083,0,0,0,0,0,0,0,-0.0156,-0.0149,-0.0082,-0.0052,-0.0044,-0.004,-0.0031,-0.0054,0.0016,0.0018,0.0026,0.0037,0.0064,0.0063,0.0063,0.0023,0.0085,0.0084,0.0083,0.0083,-0.0029,-0.003,0,0,0,0,0,0,-0.0156,-0.0152,-0.0084,-0.008,-0.0086,-0.0041,-0.003,-0.0016,0.0017,0.0027,0.0034,0.0041,0.0064,0.0065,0.0065,0.0044,0.0084,0.0082,0.0082,-0.0026,-0.0029,-0.0031,0,0,0,0,0,0,-0.0158,-0.0151,-0.0086,-0.0112,-0.0103,-0.0042,-0.0028,-0.0017,0.0008,0.0031,0.004,0.0051,0.0066,0.0067,0.0048,0.0044,0.0082,0.008,-0.0024,-0.0027,-0.003,-0.0035,0,0,0,0,0,0,-0.0161,-0.0152,-0.0146,-0.0112,-0.0101,-0.0092,-0.003,-0.0017,0.001,0.002,0.0047,0.0052,0.0069,0.005,0.0046,0.0043,0.0079,-0.0021,-0.0025,-0.0029,-0.0033,-0.0038,-0.0043,0,0,0,0,0,-0.0165,-0.0176,-0.0147,-0.0138,-0.0094,-0.0093,-0.0089,-0.0038,0.0008,-0.0001,0.0022,0.0053,0.0023,0.0046,0.0043,0.0039,-0.002,-0.0024,-0.0029,-0.003,-0.0037,-0.0043,0,0,0,0,0,0,-0.0214,-0.0166,-0.0133,-0.0127,-0.0109,-0.0076,-0.0079,-0.0039,-0.0028,-0.0013,0.0021,0.0025,0.0009,0.0006,0.0031,-0.001,0.0008,0.0002,0.0008,0.0001,-0.0004,0.0026,0.0078,0,0,0,0,0,-0.0223,-0.0217,-0.0174,-0.0173,-0.0164,-0.012,-0.011,-0.0076,-0.0058,-0.0046,-0.0024,-0.0015,-0.0022,-0.0021,-0.0034,-0.0065,-0.0039,-0.0072,-0.0077,-0.0081,-0.0063,-0.0048,-0.0048,-0.0046,-0.0046,-0.0046,0,0,-0.0244,-0.0215,-0.0212,-0.0183,-0.0164,-0.0155,-0.0107,-0.0099,-0.0083,-0.0052,-0.0037,-0.0036,-0.0038,-0.006,-0.0067,-0.0054,-0.0071,-0.0087,-0.009,-0.0069,-0.0053,-0.0052,-0.0052,-0.0049,-0.0049,-0.0048,0,0,-0.0283,-0.0256,-0.0259,-0.0245,-0.0213,-0.019,-0.0184,-0.0148,-0.0124,-0.0126,-0.0093,-0.0094,-0.0107,-0.0099,-0.0099,-0.0151,-0.0102,-0.0159,-0.0152,-0.0138,-0.0137,-0.0135,-0.0099,-0.0094,-0.0158,-0.0158,-0.0158,0,-0.0306,-0.0282,-0.0266,-0.026,-0.0236,-0.0202,-0.019,-0.0184,-0.0155,-0.0133,-0.0124,-0.0116,-0.0122,-0.0121,-0.0135,-0.0157,-0.013,-0.012,-0.014,-0.0138,-0.0136,-0.0099,-0.0093,-0.0158,-0.0158,-0.0158,-0.0158,0,-0.033,-0.031,-0.0318,-0.0283,-0.0276,-0.0267,-0.024,-0.0228,-0.0192,-0.0164,-0.0154,-0.0166,-0.0143,-0.0163,-0.0161,-0.0155,-0.0134,-0.0146,-0.0109,-0.0135,-0.0096,-0.009,-0.016,-0.0159,-0.0159,-0.0159,0,0,-0.0371,-0.0334,-0.0332,-0.0297,-0.0272,-0.026,-0.0256,-0.022,-0.0184,-0.0184,-0.0138,-0.0169,-0.0145,-0.0146,-0.0148,-0.0144,-0.0119,-0.0134,-0.0133,-0.0072,-0.006,-0.0089,-0.0084,-0.0123,-0.0123,-0.0122,-0.0035,0,-0.0377,-0.0349,-0.0336,-0.0306,-0.0278,-0.025,-0.0241,-0.0214,-0.0188,-0.0153,-0.0153,-0.013,-0.0149,-0.013,-0.0132,-0.0118,-0.0103,-0.0139,-0.0066,-0.0063,-0.0065,-0.0079,-0.012,-0.003,-0.0029,-0.0028,-0.0027,0,-0.0384,-0.0353,-0.0319,-0.0262,-0.025,-0.0239,-0.0178,-0.0168,-0.0136,-0.0114,-0.0092,-0.008,-0.0067,-0.0089,-0.0058,-0.0074,-0.0061,-0.0059,-0.0055,-0.007,-0.0082,-0.0004,-0.0015,-0.0016,-0.0017,-0.0018,-0.0018,0,-0.0374,-0.0334,-0.0292,-0.0275,-0.0227,-0.0204,-0.0179,-0.0146,-0.012,-0.008,-0.0048,-0.0032,-0.0007,-0.0002,0.0004,-0.0014,0.0041,0.0014,0.0004,0.0004,0.0012,0.0009,0.0041,0.004,0.004,0.004,0.004,0,-0.0354,-0.0328,-0.0278,-0.0253,-0.0203,-0.018,-0.0135,-0.0108,-0.007,-0.0034,-0.002,0.0001,0.0017,0.0046,0.0037,0.0048,0.0073,0.0018,0.0021,0.0004,-0.0001,0.0017,0.0013,0.0043,0.0043,0.0042,0.0041,0,-0.0351,-0.0319,-0.0274,-0.0216,-0.0197,-0.0162,-0.011,-0.0077,-0.0042,0.0006,0.0025,0.0054,0.0059,0.0075,0.0093,0.01,0.0102,0.01,0.0111,0.0112,0.0052,0.0046,0.0102,0.0102,0.0102,0.0101,0.0101,0,-0.0337,-0.0314,-0.0254,-0.0223,-0.0196,-0.0146,-0.0113,-0.0069,-0.0037,0.0022,0.0045,0.0071,0.0076,0.0095,0.0089,0.0097,0.0079,0.014,0.0063,0.0059,0.0058,0.0052,0.0047,0.0101,0.0101,0.01,0.01,0,-0.0322,-0.0314,-0.0279,-0.0216,-0.0171,-0.0122,-0.0072,-0.0047,0.0005,0.0041,0.0063,0.0073,0.0076,0.0059,0.0086,0.0077,0.0131,0.0136,0.0136,0.0063,0.0058,0.0055,0.0051,0.0099,0.0099,0.01,0.01,0,-0.0324,-0.0302,-0.026,-0.0202,-0.0153,-0.0102,-0.0079,-0.0038,-0.0004,0.0058,0.0053,0.005,0.0062,0.0048,0.0055,0.006,0.0035,0.0074,0.0076,0.0078,0.0023,0.001,0.005,0,0,0,0,0,-0.0311,-0.0287,-0.0241,-0.0175,-0.0132,-0.0097,-0.0048,-0.0029,0.0015,0.003,0.0046,0.0029,0.0028,0.0015,0.0003,0.0022,0.0035,0.0016,0.008,0.0093,0.0094,0.0028,0,0,0,0,0,0,-0.0297,-0.0274,-0.0243,-0.0168,-0.0121,-0.0066,-0.0037,-0.0009,-0.0006,0.0027,-0.0004,0.0047,0.0005,0.0012,0.0001,0.0004,0.0055,0.0017,0.0018,0.0093,0.0094,0.0095,0.0027,0,0,0,0,0]},{"header":{"parameterUnit":"m.s-1","parameterCategory":2,"la1":30.2991,"la2":30.254,"lo1":-89.0895,"lo2":-89.0444,"dy":0.0017,"dx":0.0017,"nx":28,"ny":28,"refTime":"2024-08-10T09:00:00:Z","depth":"4","parameterNumber":3,"parameterNumberName":"V-component_of_CURRENTS"},"data":[0,0,0,0,0,0,0,0,0,0,0,0,0,0,0,0,0,0,0,0,0,0,0,0,0,0,0,0,0,0,0,0,0,0,0,0,0,0,0,0,0,0,0,0,0,0,0,0,0,0,0,0,0,0,0,0,0,0,-0.0445,-0.0446,0,-0.0477,-0.0477,-0.0477,-0.0569,-0.0571,-0.0574,-0.0576,-0.0656,-0.0656,-0.0656,0,0,0,0,0,0,0,0,0,0,0,0,0,-0.0351,-0.0352,-0.0445,-0.0446,-0.0446,-0.0477,-0.0477,-0.0477,-0.0569,-0.0571,-0.0574,-0.0577,-0.0656,-0.0656,-0.0656,0,0,0,0,0,0,0,0,0,0,0,0,0,-0.0385,-0.0353,-0.0445,-0.0498,-0.0503,-0.0477,-0.0477,-0.0477,-0.0568,-0.0572,-0.0575,-0.0578,-0.0656,-0.0656,-0.0656,-0.0588,0,0,-0.0656,-0.0656,0,0,0,0,0,0,0,0,-0.0384,-0.0389,-0.0489,-0.0494,-0.05,-0.0525,-0.0473,-0.0518,-0.0567,-0.054,-0.0576,-0.058,-0.0616,-0.0619,-0.0613,-0.0592,-0.0595,-0.0656,-0.0656,-0.0656,-0.0656,0,0,0,0,0,0,0,-0.0381,-0.0387,-0.0455,-0.049,-0.0496,-0.0481,-0.0491,-0.0481,-0.0557,-0.0543,-0.0551,-0.0557,-0.0619,-0.0613,-0.0616,-0.0597,-0.0656,-0.0656,-0.0656,-0.0656,-0.055,-0.0547,0,0,0,0,0,0,-0.0385,-0.0385,-0.0454,-0.0456,-0.0452,-0.0481,-0.0491,-0.0511,-0.0557,-0.0567,-0.0554,-0.0562,-0.0611,-0.0616,-0.0619,-0.0596,-0.0656,-0.0656,-0.0656,-0.0553,-0.0549,-0.0546,0,0,0,0,0,0,-0.0383,-0.0391,-0.0453,-0.0423,-0.043,-0.048,-0.0501,-0.051,-0.0545,-0.0565,-0.0577,-0.0586,-0.0614,-0.0619,-0.0607,-0.0598,-0.0656,-0.0656,-0.0556,-0.0552,-0.0548,-0.0514,0,0,0,0,0,0,-0.038,-0.0391,-0.0421,-0.0424,-0.0432,-0.0431,-0.0498,-0.0508,-0.0543,-0.0554,-0.0595,-0.0604,-0.0617,-0.0606,-0.0607,-0.0599,-0.0656,-0.056,-0.0554,-0.0549,-0.0519,-0.0509,-0.0501,0,0,0,0,0,-0.0377,-0.0375,-0.0422,-0.0431,-0.0468,-0.043,-0.0431,-0.0476,-0.0542,-0.0527,-0.0556,-0.0605,-0.0573,-0.0603,-0.0605,-0.0597,-0.0562,-0.0556,-0.055,-0.0523,-0.0511,-0.0501,0,0,0,0,0,0,-0.035,-0.0384,-0.0436,-0.0451,-0.0449,-0.0447,-0.0444,-0.0487,-0.0499,-0.0527,-0.0567,-0.0573,-0.0557,-0.0564,-0.0597,-0.0543,-0.0576,-0.0569,-0.0555,-0.0544,-0.0535,-0.0557,-0.0656,0,0,0,0,0,-0.0359,-0.0368,-0.0394,-0.0403,-0.0407,-0.0439,-0.0443,-0.047,-0.0476,-0.049,-0.0519,-0.0534,-0.0518,-0.0527,-0.0509,-0.0483,-0.0501,-0.0474,-0.0465,-0.0458,-0.047,-0.0471,-0.0465,-0.0525,-0.0526,-0.0526,0,0,-0.0345,-0.0371,-0.0376,-0.0398,-0.0408,-0.0374,-0.0448,-0.0442,-0.0425,-0.0491,-0.0484,-0.0504,-0.05,-0.0465,-0.046,-0.0484,-0.0442,-0.045,-0.0445,-0.0461,-0.0464,-0.0459,-0.0455,-0.0521,-0.0522,-0.0523,0,0,-0.0271,-0.035,-0.0316,-0.0317,-0.0334,-0.0343,-0.035,-0.0365,-0.039,-0.0372,-0.0414,-0.0426,-0.0412,-0.0406,-0.0401,-0.0327,-0.0389,-0.0331,-0.0319,-0.0319,-0.0316,-0.0313,-0.031,-0.0308,-0.0335,-0.0335,-0.0335,0,-0.0255,-0.025,-0.0294,-0.0256,-0.0268,-0.0329,-0.0294,-0.0291,-0.0303,-0.0329,-0.0362,-0.037,-0.0375,-0.0346,-0.0327,-0.0313,-0.0332,-0.037,-0.0313,-0.0311,-0.0309,-0.0307,-0.0305,-0.0333,-0.0333,-0.0333,-0.0333,0,-0.014,-0.016,-0.0134,-0.0127,-0.0127,-0.0108,-0.0126,-0.0142,-0.0205,-0.0226,-0.0243,-0.025,-0.0277,-0.0264,-0.0281,-0.0267,-0.029,-0.0301,-0.0356,-0.0302,-0.0301,-0.03,-0.0329,-0.033,-0.0331,-0.0331,0,0,-0.0041,-0.0056,-0.0052,-0.0079,-0.0083,-0.0077,-0.0049,-0.0062,-0.0096,-0.011,-0.0146,-0.0123,-0.0201,-0.0198,-0.0229,-0.0232,-0.0227,-0.0277,-0.0278,-0.0301,-0.0241,-0.0238,-0.0237,-0.0251,-0.0251,-0.0251,-0.0241,0,0.0049,0.0092,0.0078,0.0104,0.01,0.004,0.006,0.0032,-0.0016,-0.0053,-0.0091,-0.0117,-0.0149,-0.0197,-0.0201,-0.0229,-0.0225,-0.0229,-0.0267,-0.0267,-0.0294,-0.0235,-0.025,-0.024,-0.024,-0.024,-0.024,0,0.0158,0.0151,0.0178,0.0118,0.0113,0.0129,0.0055,0.0069,0.0023,-0.0023,-0.0071,-0.0117,-0.0134,-0.0171,-0.019,-0.0205,-0.0225,-0.0234,-0.0234,-0.0251,-0.0262,-0.0305,-0.0238,-0.0238,-0.0238,-0.0238,-0.0238,0,0.0183,0.0206,0.0194,0.0186,0.015,0.0126,0.0101,0.0055,0.0039,-0.0023,-0.0056,-0.0096,-0.0129,-0.0154,-0.019,-0.0207,-0.0207,-0.0222,-0.0222,-0.0222,-0.025,-0.0253,-0.022,-0.022,-0.022,-0.022,-0.022,0,0.0229,0.0223,0.0189,0.0173,0.0144,0.0115,0.0077,0.0041,0.0008,-0.0013,-0.0061,-0.009,-0.0135,-0.0149,-0.018,-0.0197,-0.0195,-0.0215,-0.0218,-0.0229,-0.0229,-0.0248,-0.0251,-0.022,-0.022,-0.022,-0.022,0,0.0223,0.0216,0.0198,0.0158,0.0142,0.0105,0.0067,0.0045,0.0011,-0.0015,-0.0034,-0.008,-0.0115,-0.013,-0.0164,-0.0177,-0.0192,-0.0192,-0.0193,-0.0198,-0.021,-0.0211,-0.0197,-0.0197,-0.0197,-0.0196,-0.0196,0,0.0203,0.0197,0.0172,0.0154,0.0125,0.0084,0.006,0.0033,0.0018,-0.0014,-0.0024,-0.0058,-0.0093,-0.0132,-0.0152,-0.0174,-0.018,-0.018,-0.0204,-0.0202,-0.0207,-0.0209,-0.021,-0.0196,-0.0196,-0.0196,-0.0196,0,0.0163,0.0166,0.0145,0.012,0.0092,0.0074,0.0038,0.0025,0.0,0.001,-0.0044,-0.0078,-0.0104,-0.0147,-0.0151,-0.0171,-0.018,-0.0178,-0.0179,-0.0202,-0.0201,-0.0206,-0.0208,-0.0195,-0.0195,-0.0195,-0.0195,0,0.0123,0.0111,0.0099,0.0073,0.0063,0.0037,0.0021,-0.0006,-0.002,-0.0044,-0.0059,-0.0099,-0.0111,-0.0144,-0.0153,-0.0165,-0.0179,-0.0191,-0.0191,-0.0192,-0.0195,-0.0194,-0.0183,0,0,0,0,0,0.0074,0.0068,0.0052,0.0022,0.0024,0.002,0.0003,-0.0004,-0.0011,-0.005,-0.0058,-0.0091,-0.0131,-0.0153,-0.0167,-0.0147,-0.0171,-0.0162,-0.0184,-0.0192,-0.0192,-0.0196,0,0,0,0,0,0,0.0039,0.0028,0.0038,-0.0002,-0.0019,-0.0028,-0.0038,-0.0044,-0.0072,-0.0077,-0.0106,-0.0086,-0.0127,-0.012,-0.0165,-0.0165,-0.0181,-0.0166,-0.0166,-0.0191,-0.0192,-0.0192,-0.0197,0,0,0,0,0]}]]